Location: Cherry Springs State Park
(41.6616°N, 77.8240°W)
Time: 16:47:08
(UTC-05:00)

Daily predictions for brighter satellites

Satellite Brightness Start Highest point End
(mag) Time Altitude Azimuth Time Altitude Azimuth Time Altitude Azimuth
USA 234 3.4 16:59:55 10° NE 17:06:30 81° NW 17:13:01 10° SW
Cosmos 372 Rocket 4.2 17:03:30 10° S 17:08:36 54° ESE 17:13:43 10° NNE
APEX 4.4 17:02:21 10° SSW 17:09:12 79° ESE 17:14:40 10° NNE
Cosmos 1602 3.9 17:07:06 10° N 17:11:03 80° W 17:14:57 10° S
Ariane Rocket 4.1 17:07:16 10° S 17:12:12 51° W 17:17:09 10° NNW
Cosmos 1484 Rocket 4.3 17:10:12 10° E 17:12:20 15° ENE 17:14:27 10° NNE
NOSS 3-1 (A) 4.3 17:05:18 10° NW 17:12:57 80° WSW 17:21:18 10° SSE
Cosmos 2082 Rocket 4.0 17:11:43 10° NNE 17:12:59 11° NE 17:14:15 10° NE
OTV 4 2.0 17:10:46 10° WSW 17:13:31 32° S 17:16:14 10° ESE
Cosmos 1455 Rocket 4.2 17:11:21 10° NNE 17:14:46 22° ENE 17:18:11 10° SE
Cosmos 1295 Rocket 4.5 17:13:11 10° N 17:19:15 60° E 17:25:15 10° SSE
Cosmos 1125 Rocket 3.8 17:17:05 10° SSW 17:22:22 77° WNW 17:27:43 10° NNE
Cosmos 2341 Rocket 4.0 17:17:07 10° N 17:23:21 85° E 17:29:35 10° S
Thor Agena Rocket 3.7 17:19:50 10° NNE 17:24:59 60° ESE 17:30:10 10° S
ATLAS 2AS CENTAUR R/B 3.3 17:17:09 10° NNW 17:25:01 49° NE 17:32:25 10° ESE
Cosmos 1269 Rocket 4.4 17:22:47 10° NNW 17:28:06 73° WSW 17:33:22 10° S
Cosmos 1536 3.2 17:31:39 10° NNW 17:35:42 69° W 17:39:44 10° S
Cosmos 2251 Rocket 3.8 17:33:52 10° N 17:39:00 44° ENE 17:44:04 10° SE
Cosmos 2263 Rocket 3.9 17:34:20 10° WSW 17:39:08 29° NW 17:44:01 10° N
ISS -3.3 17:43:42 10° WSW 17:47:00 82° NW 17:49:08 20° NE
MSX 3.8 17:47:12 10° SSE 17:52:55 72° ENE 17:58:40 10° N
SL-27 R/B 2.4 17:51:15 10° NNW 17:54:56 68° ENE 17:58:33 10° SSE
Cosmos 1812 2.8 17:52:44 10° S 17:56:30 54° E 18:00:17 10° NNE
Cosmos 1346 Rocket 3.8 17:53:36 10° SE 17:56:45 23° E 17:57:08 23° E
Cosmos 864 Rocket 4.4 17:53:36 10° N 17:59:53 69° E 18:06:09 10° SSE
CZ-4 R/B 2.9 17:56:51 10° S 18:00:49 41° W 18:04:47 10° NNW
COSMO-SKYMED 1 2.8 17:57:34 10° NNE 18:01:48 49° E 18:06:00 10° S
Cosmos 1544 Rocket 3.6 17:58:35 10° N 18:03:03 89° W 18:07:32 10° S
Cosmos 1844 Rocket 2.9 17:59:34 10° SSW 18:05:09 74° WNW 18:10:48 10° NNE
Cosmos 1975 Rocket 4.4 18:02:14 10° SSW 18:06:18 40° WNW 18:10:24 10° N
GEOS 3 Rocket 3.5 18:01:30 10° SE 18:06:32 62° NE 18:11:36 10° NNW
CZ-2C R/B 3.3 18:02:40 10° S 18:07:28 53° W 18:12:28 10° NNW
Cosmos 1238 Rocket 2.2 18:08:36 10° SSW 18:11:34 74° W 18:13:47 17° N
MONITOR-E 4.3 18:08:50 10° S 18:12:01 77° WSW 18:15:14 10° NNW
Meteor 1-12 Rocket 4.2 18:06:15 10° N 18:12:03 75° E 18:17:54 10° SSE
Cosmos 1844 3.7 18:09:49 10° SSW 18:15:23 82° WNW 18:20:25 13° NNE
CZ-3A R/B 4.0 18:11:01 10° W 18:16:20 55° NNW 18:35:18 18° ENE
Cosmos 2297 4.5 18:11:52 10° SSE 18:16:40 29° ESE 18:17:28 28° E
Cosmos 1975 2.7 18:12:50 10° N 18:16:54 64° E 18:20:55 10° SSE
OPS 8737 4.1 18:14:50 10° SSW 18:18:11 87° SE 18:18:56 50° NE
BREEZE-M DEB (TANK) 3.2 18:16:46 10° WNW 18:18:34 24° NNW 18:18:34 24° NNW
Cosmos 1536 Rocket 3.5 18:18:16 10° S 18:22:42 89° W 18:27:13 10° N
SL-24 DEB 4.4 18:22:29 10° N 18:27:15 77° W 18:31:57 10° SSW
Cosmos 2278 Rocket 2.1 18:27:27 10° SSW 18:33:06 85° ESE 18:36:35 25° NNE
Meteor 2-21 Rocket 4.4 18:30:24 10° N 18:36:35 63° E 18:42:40 10° SSE
Meteor 2-16 Rocket 4.4 18:36:18 10° N 18:42:19 57° ENE 18:48:16 10° SSE
Meteor 1-13 Rocket 4.1 18:37:35 10° S 18:43:08 65° E 18:46:06 29° NNE
Cosmos 1484 Rocket 4.1 18:42:57 10° SSW 18:46:29 38° W 18:50:00 10° NNW
Okean 1-7 Rocket 3.9 18:43:10 10° S 18:46:43 49° SE 18:46:43 49° SE
USA 234 4.4 18:45:29 20° NNE 18:48:56 33° NNW 18:54:36 10° W
OTV 4 3.2 18:47:48 10° WSW 18:49:32 14° SSW 18:49:39 14° SSW
SKYMED 2 4.5 18:46:12 13° N 18:49:52 48° WNW 18:54:02 10° SSW
CZ-3B DEB 2.9 18:46:16 10° WSW 18:50:31 61° NNW 18:55:16 29° NE
Cosmos 1535 Rocket 4.4 18:47:40 10° N 18:53:58 62° E 19:00:08 10° SSE
Timation 2 Rocket 4.1 18:49:50 10° NNW 18:56:38 69° ENE 18:59:44 35° SE
Cosmos 2082 Rocket 2.3 18:52:43 10° NNW 18:57:45 56° NE 18:57:45 56° NE
NOSS 3-4 (A) 4.4 18:54:07 10° NNW 18:59:50 36° NNE 18:59:50 36° NNE
NOSS 3-4 (C) 4.4 18:54:13 10° NNW 18:59:54 36° NNE 18:59:54 36° NNE
Cosmos 1833 Rocket 3.3 18:58:47 10° NNW 19:02:46 42° NNE 19:02:46 42° NNE
BREEZE-M DEB (TANK) 4.2 19:00:35 10° WNW 19:05:27 30° N 19:05:27 30° N
NOSS 3-3 (A) 4.2 19:01:07 10° SW 19:07:18 69° NW 19:09:42 40° NNE
NOSS 3-3 (C) 4.2 19:01:13 10° SW 19:07:24 69° NW 19:09:45 41° NNE
SL-8 R/B 3.9 19:04:45 10° WSW 19:09:02 69° W 19:09:02 69° W
Cosmos 2239 Rocket 4.3 19:05:58 10° N 19:12:13 86° E 19:18:23 10° S
ATLAS 2AS CENTAUR R/B 4.0 19:08:32 10° NW 19:15:59 44° WSW 19:22:56 10° S
METEOR-M 4.4 19:11:06 10° S 19:16:23 66° WSW 19:21:43 10° NNW
Cosmos 1821 Rocket 3.8 19:14:27 10° N 19:20:35 85° W 19:26:40 10° S
ISS -0.1 19:21:23 10° WNW 19:21:49 12° WNW 19:21:49 12° WNW
ATLAS 3B CENTAUR R/B 4.2 19:49:46 10° WSW 19:59:47 28° SSW 20:00:10 28° SSW
FALCON 9 R/B 4.0 20:17:04 10° W 20:26:28 37° SW 20:26:28 37° SW
